Location: L’Étoile
(50.0232°N, 2.0349°E)
Time: 06:00:24
(UTC+00:00)

Daily predictions for brighter satellites

Satellite Brightness Start Highest point End
(mag) Time Altitude Azimuth Time Altitude Azimuth Time Altitude Azimuth
CENTAUR R/B 3.7 19:19:05 10° NW 19:26:39 50° NNE 19:35:22 10° ESE
USA 281 3.7 19:20:37 10° SE 19:26:53 49° NE 19:33:11 10° NNW
Okean-O 3.4 19:24:58 10° SE 19:28:59 36° ENE 19:33:01 10° N
SPOT 5 4.1 19:26:03 10° ESE 19:30:30 29° ENE 19:34:51 10° N
Tiangong -0.2 19:30:03 10° SW 19:32:09 17° S 19:34:15 10° SE
Cosmos 1437 Rocket 4.1 19:29:17 10° NNE 19:32:33 24° ENE 19:35:48 10° ESE
Aureole 1 Rocket 3.6 19:31:29 10° N 19:34:03 24° ENE 19:36:46 10° ESE
Okean O Rocket 1.6 19:31:16 10° SSE 19:35:38 74° ENE 19:40:02 10° N
Cosmos 2263 Rocket 3.5 19:33:45 10° NNW 19:38:31 27° NE 19:43:15 10° ESE
Iridium 2 3.1 19:37:29 10° N 19:40:22 52° E 19:43:13 10° SSE
CZ-4C R/B 3.1 19:34:31 10° NW 19:41:25 75° NE 19:49:54 10° SE
Cosmos 2219 4.0 19:37:55 10° NNW 19:43:11 38° NE 19:48:24 10° ESE
CZ-4C R/B 4.0 19:40:37 10° NE 19:43:28 25° E 19:46:18 10° SSE
Nadezhda 3 Rocket 4.2 19:40:50 10° SSW 19:47:00 81° W 19:53:16 10° N
NOSS 3-1 (A) 3.8 19:42:33 10° WSW 19:47:37 63° NW 19:53:51 10° NE
Cosmos 1605 Rocket 4.2 19:43:54 10° N 19:50:11 55° ENE 19:56:20 10° SSE
ERS-1 Rocket 4.1 19:46:25 10° ESE 19:50:38 28° ENE 19:54:52 10° N
Alouette 2 Rocket 4.2 19:43:56 10° NNW 19:50:48 85° ENE 19:55:15 10° SSE
CZ-4B R/B 3.8 19:45:39 10° S 19:51:11 60° WSW 19:56:39 10° NNW
USA 234 3.3 19:50:24 10° ESE 19:56:58 85° SSW 20:03:33 10° WNW
USA 229 DEB 3.5 19:51:09 10° SSW 19:57:15 71° SE 20:04:02 10° NE
USA 229 3.5 19:51:15 10° SSW 19:57:22 70° SE 20:04:08 10° NE
Resurs 01 Rocket 2.1 19:55:39 10° S 20:00:01 63° WSW 20:04:27 10° NNW
Cosmos 1892 Rocket 3.9 19:57:00 10° N 20:01:12 47° ENE 20:05:08 11° SSE
Cosmos 2151 Rocket 4.2 19:59:48 10° SSW 20:04:09 61° WNW 20:08:36 10° N
Cosmos 405 Rocket 3.1 20:01:59 10° SSE 20:05:28 39° E 20:08:55 10° NNE
ATLAS 3B R/B 3.7 20:02:53 10° WSW 20:09:59 55° NW 20:17:34 10° NE
ATLAS 5 CENTAUR R/B 3.9 20:08:03 10° WNW 20:10:48 20° NNW 20:13:54 10° NNE
USA 186 4.0 20:08:25 10° SSW 20:10:52 23° W 20:13:20 10° NW
Cosmos 1934 Rocket 4.3 20:04:45 10° NNW 20:10:55 71° W 20:17:09 10° S
BlueWalker 3 2.4 20:09:05 10° W 20:12:52 62° NNW 20:16:41 10° ENE
MetOp-B 4.2 20:11:38 11° SSE 20:16:42 68° ENE 20:22:03 10° N
SL-4 R/B 3.0 20:20:09 10° W 20:23:17 28° SW 20:25:16 17° SSE
Iridium 4 Rocket 3.8 20:19:15 10° S 20:24:59 87° W 20:30:54 10° N
Okean 2 Rocket 4.5 20:20:45 10° SW 20:25:01 42° WNW 20:29:17 10° N
MOS 1 Rocket 4.5 20:26:02 17° ESE 20:28:15 25° ENE 20:31:56 10° N
Cosmos 1455 Rocket 3.0 20:24:36 10° S 20:28:56 63° E 20:33:16 10° NNE
Cosmos 1937 Rocket 3.8 20:24:11 10° NNW 20:29:25 54° ENE 20:32:56 20° SE
Cosmos 2084 4.1 20:27:04 10° S 20:30:33 27° ESE 20:33:56 10° ENE
Cosmos 2100 Rocket 4.5 20:25:34 10° N 20:31:39 45° ENE 20:35:47 20° SE
Cosmos 1727 Rocket 4.2 20:26:59 11° SSE 20:32:47 50° E 20:38:45 10° NNE
Cosmos 1606 4.2 20:33:07 18° E 20:33:17 18° E 20:35:49 10° NE
IRS-1A Rocket 4.4 20:28:10 14° SSE 20:33:17 79° ENE 20:39:07 10° NNW
Okean 1 Rocket 4.0 20:30:10 10° SSW 20:34:31 52° WNW 20:38:55 10° N
ATLAS CENTAUR R/B 1.7 20:31:08 10° NW 20:34:51 53° SW 20:37:21 20° SSE
Cosmos 1980 Rocket 2.6 20:30:49 10° S 20:36:00 40° ESE 20:41:13 10° NE
Meteor 2-3 Rocket 4.5 20:31:15 10° N 20:36:34 38° ENE 20:39:49 21° ESE
Cosmos 2227 Rocket 2.6 20:31:16 10° NW 20:36:53 63° WSW 20:41:35 15° S
SPOT 3 Rocket 3.9 20:38:50 22° SE 20:41:59 52° ENE 20:47:01 10° N
Cosmos 1697 Rocket 2.6 20:36:42 10° SSW 20:42:22 84° ESE 20:48:04 10° NNE
COSMOS 2455 3.9 20:37:34 10° NW 20:43:07 39° WSW 20:48:34 10° S
Cosmos 44 4.4 20:39:31 10° WSW 20:44:47 52° NW 20:49:56 10° NE
Terra 1.8 20:45:34 24° SSE 20:48:23 67° ENE 20:53:05 10° N
Lacrosse 4 Rocket 3.0 20:49:53 18° E 20:49:53 18° E 20:51:35 10° ENE
Spot 2 Rocket 3.6 20:45:48 24° SE 20:48:51 64° ENE 20:53:50 10° N
Cosmos 1898 Rocket 3.5 20:44:53 10° NNW 20:50:09 81° WSW 20:53:30 23° SSE
Landsat 4 3.7 20:54:52 27° S 20:56:39 66° WSW 21:00:10 10° NNW
IRS-1C Rocket 4.5 20:53:20 15° S 20:57:42 62° WSW 21:02:58 10° NNW
Cosmos 1763 Rocket 4.1 20:52:49 10° SW 20:57:50 57° WNW 21:02:58 10° NNE
Intercosmos 25 3.3 20:55:50 10° N 20:59:53 54° ENE 21:00:43 41° SE
Cosmos 1459 Rocket 4.0 20:53:54 10° N 20:59:58 62° ENE 21:03:25 26° SSE
Cosmos 540 Rocket 3.7 20:57:26 10° SSW 21:02:30 70° WNW 21:07:38 10° NNE
USA 267 3.5 20:56:19 10° ENE 21:02:51 74° NNW 21:09:23 10° WSW
Cosmos 2297 Rocket 4.2 20:59:44 10° NW 21:04:01 23° WSW 21:08:18 10° SSW
Okean-O 4.3 21:01:35 10° SSW 21:05:25 29° W 21:09:18 10° NW
SPOT 5 3.8 21:03:56 14° S 21:08:17 50° W 21:13:18 10° NNW
Cosmos 1437 Rocket 4.2 21:04:44 10° NNW 21:08:20 34° W 21:11:12 14° SSW
NOSS 3-2 (A) 4.0 21:01:05 10° NW 21:08:23 89° ENE 21:13:38 27° SE
Ariane Rocket 2.9 21:06:19 28° SSE 21:09:05 88° W 21:14:10 10° NNW
Cosmos 1626 Rocket 3.5 21:05:17 10° N 21:09:44 80° E 21:11:32 36° SSE
Cosmos 1725 Rocket 4.3 21:04:37 10° N 21:10:39 51° ENE 21:13:29 30° SE
USA 281 4.1 21:05:52 13° S 21:11:27 43° WSW 21:17:42 10° NW
Okean O Rocket 4.3 21:10:04 10° WSW 21:12:27 14° W 21:14:49 10° NW
Cosmos 858 Rocket 4.5 21:07:14 10° NNW 21:12:33 88° WSW 21:15:00 33° SSE
Cosmos 2058 3.4 21:12:27 10° NNW 21:16:23 52° W 21:18:21 26° SSW
Aureole 1 Rocket 4.5 21:14:47 10° WNW 21:17:06 20° WSW 21:18:34 15° SW
CENTAUR R/B 3.4 21:09:47 10° NW 21:17:58 70° SW 21:23:34 26° SSE
Cosmos 2369 3.6 21:15:51 15° SSW 21:20:29 66° ESE 21:26:07 10° NNE
Cosmos 2228 3.0 21:20:14 47° SE 21:21:04 58° E 21:25:12 10° NNE
MetOp-A 3.3 21:21:58 52° ESE 21:22:37 63° ENE 21:26:28 10° N
Cosmos 372 Rocket 4.5 21:17:41 10° NNW 21:22:48 55° WSW 21:25:27 27° S
Cosmos 2263 Rocket 2.3 21:17:22 10° NNW 21:22:57 70° WSW 21:25:30 33° S
USA 81 4.2 21:21:54 18° SSW 21:25:49 70° W 21:31:07 10° N
Cosmos 2219 3.9 21:22:05 10° NW 21:27:26 45° WSW 21:30:24 24° SSW
ERS-1 Rocket 3.7 21:26:13 22° SSW 21:29:10 48° W 21:34:02 10° NNW
CZ-4C R/B 4.0 21:23:12 10° NW 21:29:48 37° WSW 21:35:19 18° S
Cosmos 2360 Rocket 4.1 21:31:27 13° E 21:31:27 13° E 21:32:56 10° ENE
Cosmos 1544 Rocket 3.5 21:29:08 33° SSW 21:31:02 78° WNW 21:35:21 10° N
Cosmos 2173 Rocket 4.1 21:24:57 10° NNW 21:31:20 78° W 21:34:52 28° S
Cosmos 1862 3.5 21:30:02 10° N 21:33:51 49° ENE 21:34:00 49° E
Cosmos 1500 4.1 21:31:19 10° N 21:34:10 31° ENE 21:34:10 31° ENE
Cosmos 2061 Rocket 4.2 21:30:11 10° N 21:36:34 60° ENE 21:38:59 37° SE
USA 238 DEB 4.3 21:30:00 10° NW 21:37:04 56° NE 21:41:44 24° ESE
USA 238 4.3 21:30:06 10° NW 21:37:10 56° NE 21:41:51 24° ESE
USA 234 4.4 21:37:40 22° S 21:40:34 31° SW 21:46:15 10° WNW
Cosmos 2082 4.2 21:36:39 10° NW 21:42:07 52° WSW 21:44:22 33° SSW
Cosmos 841 Rocket 3.7 21:40:35 12° SW 21:45:20 66° WNW 21:50:28 10° NNE
Cosmos 2322 Rocket 3.5 21:47:30 23° E 21:47:30 23° E 21:51:01 10° NE
BlueWalker 3 2.5 21:47:40 10° WNW 21:51:26 54° N 21:52:21 42° NE
Cosmos 1864 Rocket 4.4 21:46:54 10° NNW 21:53:04 80° W 21:55:32 39° S
Spot 1 4.4 21:49:43 10° N 21:54:13 64° WNW 21:55:50 36° SW
Cosmos 1602 Rocket 3.8 21:50:04 10° NNW 21:54:24 62° W 21:55:18 49° SW
Cosmos 1758 Rocket 4.1 21:51:42 10° NNW 21:56:04 53° W 21:57:10 42° SW
ATLAS 5 CENTAUR R/B 4.5 21:54:03 10° NNW 21:56:17 14° N 21:58:42 10° NE
H-2A R/B 3.3 21:56:41 33° ENE 21:56:41 33° ENE 21:59:57 10° N
Cosmos 1544 4.2 21:55:55 10° NNW 21:57:59 30° WNW 21:57:59 30° WNW
Cosmos 1869 4.3 21:58:50 33° WSW 21:59:56 42° WNW 22:03:39 10° N
Landsat 5 3.8 21:56:16 10° N 22:00:23 61° WNW 22:01:21 46° SW
Cosmos 2333 Rocket 3.8 22:01:51 19° E 22:01:51 19° E 22:04:45 10° NE
Lacrosse 5 2.9 22:03:58 32° E 22:03:58 32° E 22:06:56 10° ENE
Cosmos 2016 Rocket 4.0 21:56:48 10° NNW 22:02:55 73° W 22:05:15 40° S
Cosmos 1844 Rocket 2.9 21:59:51 10° NNW 22:05:26 62° ENE 22:06:50 47° ESE
MOS 1 Rocket 4.0 22:05:13 36° SW 22:06:11 42° W 22:10:29 10° NNW
Cosmos 1125 Rocket 3.8 22:01:45 10° NNW 22:06:55 54° ENE 22:07:57 46° E
Cosmos 1606 3.8 22:07:10 33° W 22:07:49 36° WNW 22:11:13 10° N
Cosmos 1802 Rocket 4.4 22:03:00 10° NNW 22:09:10 57° W 22:12:00 32° SSW
Cosmos 2084 4.2 22:05:35 10° WSW 22:09:29 46° NW 22:13:14 10° NE
SL-16 R/B 2.3 22:09:25 52° ESE 22:09:44 52° ESE 22:15:15 10° NE
Cosmos 1606 Rocket 3.4 22:10:48 73° ENE 22:10:48 73° ENE 22:14:58 10° NNE
Cosmos 1825 Rocket 3.4 22:07:33 10° N 22:11:59 85° W 22:12:12 80° SSW
Cosmos 1844 3.9 22:06:35 10° NNW 22:12:20 63° ENE 22:13:48 47° ESE
Cosmos 1980 Rocket 3.3 22:14:39 10° WSW 22:19:58 42° NW 22:25:22 10° NNE
Terra 4.0 22:24:17 13° WSW 22:26:27 17° W 22:29:37 10° NW
Lacrosse 4 Rocket 2.1 22:25:43 42° W 22:26:34 50° NW 22:30:28 10° NNE
Cosmos 1602 4.5 22:24:05 10° N 22:26:51 45° NNE 22:26:51 45° NNE
NOSS 3-2 (C) 4.1 22:20:53 10° NW 22:28:14 67° SW 22:31:04 44° S
ARIANE 5 R/B 2.5 22:29:46 82° WSW 22:29:46 82° WSW 22:34:16 10° NNW
Cosmos 2151 3.1 22:29:47 10° N 22:33:35 72° N 22:33:35 72° N
Cosmos 2278 3.7 22:33:20 47° SW 22:35:01 82° WNW 22:40:45 10° NNE
Cosmos 1271 Rocket 3.5 22:32:57 10° NNW 22:35:52 47° NW 22:35:52 47° NW
Cosmos 2058 Rocket 3.6 22:39:43 50° NE 22:39:43 50° NE 22:43:16 10° NNE
Spot 2 4.4 22:41:58 55° NNE 22:41:58 55° NNE 22:45:30 10° N
ALOS 2 3.2 22:42:30 46° ENE 22:42:30 46° ENE 22:46:30 10° N
Timation 2 Rocket 4.0 22:36:24 10° NNW 22:43:02 80° ENE 22:44:29 56° SE
USA 267 4.1 22:39:14 10° ENE 22:45:28 49° N 22:51:43 10° WNW
Cosmos 1666 4.1 22:45:10 10° NNW 22:47:31 32° NW 22:47:31 32° NW
Cosmos 1726 Rocket 3.9 22:49:07 60° WNW 22:49:07 60° WNW 22:53:14 10° N
Cosmos 1812 4.1 22:54:17 32° NNE 22:54:17 32° NNE 22:56:23 10° NNE
Cosmos 2208 Rocket 4.1 22:53:05 63° E 22:53:05 63° E 22:58:20 10° NNE
SL-19 R/B 4.3 22:57:47 10° NNE 23:03:34 69° ESE 23:04:07 65° SE
Cosmos 2150 Rocket 3.8 22:58:36 10° NNW 23:03:48 89° ENE 23:03:52 87° ESE
Cosmos 2263 Rocket 4.4 23:03:54 10° WNW 23:05:48 12° W 23:07:12 11° WSW
Cosmos 1464 Rocket 3.9 23:00:48 10° N 23:07:14 80° E 23:08:17 64° SSE
Cosmos 1809 Rocket 4.3 23:07:02 67° S 23:07:56 85° E 23:14:11 10° N
Cosmos 2298 Rocket 3.9 23:05:26 10° NNW 23:10:47 81° WSW 23:10:49 81° WSW
Cosmos 2360 Rocket 2.0 23:13:10 77° SE 23:13:16 78° ESE 23:18:56 10° NNE
Cosmos 1238 Rocket 4.0 23:16:51 39° NW 23:16:51 39° NW 23:19:56 10° N
Cosmos 1513 Rocket 4.4 23:11:44 10° NNW 23:17:50 71° W 23:18:42 62° SW
COSMOS 2428 4.2 23:19:09 24° E 23:19:09 24° E 23:22:52 10° NE
Cosmos 1076 Rocket 4.5 23:15:02 10° NNW 23:18:23 40° WNW 23:18:23 40° WNW
Meteor 2-14 Rocket 4.3 23:19:29 68° SSW 23:20:20 87° W 23:26:33 10° N
Cosmos 158 Rocket 3.9 23:21:00 74° NE 23:21:00 74° NE 23:25:40 10° NNE
Cosmos 2219 Rocket 2.5 23:24:58 50° E 23:24:58 50° E 23:29:52 10° NE
USA 238 DEB 4.2 23:21:04 10° NW 23:28:08 51° WSW 23:29:08 48° SW
USA 238 4.1 23:21:10 10° NW 23:28:14 51° WSW 23:29:15 48° SW
Cosmos 1570 Rocket 4.4 23:27:53 51° W 23:28:36 56° WNW 23:33:45 10° NNE
Cosmos 2333 4.1 23:28:53 72° ESE 23:28:53 72° ESE 23:34:21 10° NNE
BlueWalker 3 4.4 23:26:00 10° WNW 23:26:45 15° WNW 23:26:45 15° WNW
Cosmos 2322 Rocket 2.4 23:29:15 56° WSW 23:30:12 66° WNW 23:35:49 10° NNE
Cosmos-2242 3.7 23:31:20 51° NNE 23:31:20 51° NNE 23:34:32 10° NNE
H-2A R/B 4.3 23:32:43 20° WNW 23:32:43 20° WNW 23:34:40 10° NW
Cosmos 2034 Rocket 3.8 23:26:40 10° N 23:32:51 84° E 23:33:36 71° SSE
Cosmos 2278 Rocket 3.4 23:28:15 10° NNW 23:33:29 36° NE 23:35:54 25° E
Aureole 3 Rocket 4.3 23:29:57 10° N 23:32:21 31° NNE 23:32:21 31° NNE
H-2A R/B 2.9 23:30:09 10° NNE 23:33:17 43° NE 23:33:17 43° NE
ATLAS 5 CENTAUR R/B 3.8 23:37:55 10° NNW 23:41:38 25° NNE 23:46:00 10° E
Cosmos 1867 3.4 23:38:39 10° NW 23:44:11 89° SW 23:44:11 89° SW
Cosmos 2333 Rocket 2.1 23:43:49 69° WSW 23:44:21 76° WNW 23:50:03 10° NNE
Cosmos 1782 4.0 23:46:16 39° N 23:46:16 39° N 23:48:46 10° N
Lacrosse 5 2.4 23:43:03 35° W 23:45:00 57° NNW 23:50:04 10° NE
USA 32 4.1 23:46:50 70° E 23:46:50 70° E 23:51:55 10° N
Cosmos 1943 Rocket 3.8 23:42:06 10° NNW 23:47:03 29° NE 23:50:47 15° E
Meteor 2-2 Rocket 4.2 23:46:56 76° SSE 23:47:23 83° E 23:53:25 10° NNE
Cosmos 1844 Rocket 4.1 23:44:24 10° NW 23:48:28 25° W 23:48:28 25° W
Cosmos 1634 Rocket 4.2 23:42:37 10° N 23:48:56 62° ENE 23:50:06 53° ESE
SL-16 R/B 3.5 23:51:13 22° W 23:54:05 34° NW 23:59:15 10° NNE
